Flag for Angola Weather past 2 weeks in Luanda, Angola

Now
75 °F

Scattered clouds.


Feels Like: 77 °F
Forecast: 66 / 75 °F
Wind: 7 mph from Northwest

Location: Luanda Airport

Current Time: Jul 28, 2014 at 1:28:41 PM

Latest Report: Jul 28, 2014 at 1:00 PM


Visibility: N/A

Pressure: 29.95 "Hg

Humidity: 65%

Dew point: 63 °F

Location of LuandaLocation

Historic Weather in Luanda — Graph

°F

Luanda temperature yesterday

Maximum temperature yesterday: 75 °F (at 11:00 AM)
Minimum temperature yesterday: 63 °F (at 2:00 AM)
Average temperature yesterday: 68 °F

Past Weeks' High & Low Weather Summary

 TemperatureHumidityPressure
High84 °F (Jul 14, 2:00 AM)94% (Jul 16, 12:00 AM)30.30 "Hg (Jul 16, 12:00 AM)
Low63 °F (Jul 20, 4:00 AM)38% (Jul 19, 7:00 PM)29.92 "Hg (Jul 14, 4:05 PM)
Average69 °F79%30.03 "Hg
* Reported Jul 13 8:00 PM — Jul 28 12:00 Noon, Luanda, Weather by CustomWeather, © 2014

Note: Actual official high and low records may vary slightly from our data, if they occured in-between our weather recording intervals... More about our weather records

Advertising

Luanda weather history for previous 24 hours

 ConditionsComfort  
Time TempWeatherWind HumidityBarometerVisibility
12:00 PM
Jul 28
75 °FScattered clouds.7 mph65%29.98 "HgN/A
11:00 AM75 °FScattered clouds.2 mph61%30.01 "HgN/A
10:00 AM75 °FScattered clouds.6 mph65%30.04 "HgN/A
9:00 AM70 °FScattered clouds.6 mph78%30.04 "Hg5 mi
8:00 AM66 °FFog.5 mph88%30.04 "Hg3 mi
7:00 AM64 °FPartly sunny.3 mph94%30.01 "Hg5 mi
6:00 AM64 °FPassing clouds.3 mph88%30.01 "HgN/A
5:00 AM64 °FPassing clouds.3 mph94%30.01 "HgN/A
4:00 AM64 °FPassing clouds.5 mph94%29.98 "HgN/A
3:00 AM64 °FPassing clouds.5 mph94%30.01 "HgN/A
2:00 AM64 °FPassing clouds.6 mph94%30.01 "HgN/A
12:00 AM66 °FPassing clouds.6 mph88%30.04 "HgN/A
11:00 PM
Jul 27
64 °FPassing clouds.5 mph94%30.04 "HgN/A
10:00 PM66 °FPassing clouds.6 mph88%30.04 "HgN/A
9:00 PM66 °FPassing clouds.7 mph88%30.01 "HgN/A
7:00 PM68 °FPassing clouds.7 mph88%29.98 "HgN/A
6:00 PM68 °FSunny.7 mph83%29.95 "Hg10 mi
5:30 PM70 °FSunny.7 mph78%29.92 "Hg10 mi
4:00 PM72 °FSunny.7 mph73%29.92 "Hg10 mi
3:00 PM75 °FPassing clouds.7 mph61%29.95 "HgN/A
2:00 PM75 °FPartly sunny.7 mph61%29.98 "HgN/A
1:00 PM73 °FPartly sunny.6 mph65%30.01 "Hg5 mi
Weather by CustomWeather, © 2014

See weather overviewHow to use our weather pages